Regional Weather Roundup
Issued by NWS

Home | Current Version | Previous Version | Text Only | Print | Product List | Glossary Off
Versions: 1 2 3 4 5 6 7 8 9 10 11 12 13 14 15 16 17 18 19 20 21 22 23 24 25 26 27 28 29 30 31 32 33 34 35 36 37 38 39 40 41 42 43 44 45 46 47 48 49 50

937
ASUS45 KABQ 130501
RWRNM
NEW MEXICO REGIONAL WEATHER ROUNDUP
NATIONAL WEATHER SERVICE ALBUQUERQUE NM
1000 PM MST FRI FEB 12 2016

NOTE: "FAIR" MEANS FEW OR NO CLOUDS BELOW 12,000 FEET AGL WITH NO
       SIGNIFICANT WEATHER OR OBSTRUCTIONS TO VISION.

      THIS PRODUCT IS RELEASED AS TWO VERSIONS.  ONE VERSION NEAR
      THE TOP OF THE HOUR CONTAINING PRELIMINARY DATA FROM ALBUQUERQUE
      AND OTHER STATIONS.  A FINAL VERSION WITH ADDITIONAL DATA IS
      ISSUED ABOUT 10 MINUTES AFTER THE HOUR.

NMZ501-503-504-510>518-130600-
NORTHWEST PLATEAU/NORTHCENTRAL MOUNTAINS

CITY           SKY/WX    TMP DP  RH WIND       PRES   REMARKS
FARMINGTON     CLOUDY    33  25  72 NE5       30.34R WCI  29
SANTA FE       CLOUDY    38  20  48 N5        30.35S WCI  34
TAOS           CLOUDY    32  23  69 N8        30.39S WCI  25
ANGEL FIRE     FAIR      23  19  85 CALM      30.45S

$$
NMZ402-403-502-505>509-130600-
WESTCENTRAL MOUNTAINS/SOUTHWEST MOUNTAINS

CITY           SKY/WX    TMP DP  RH WIND       PRES   REMARKS
GALLUP         CLEAR     29  19  66 CALM      30.37S
GRANTS         CLEAR     32  11  42 W7G17     30.40R WCI  25
SILVER CITY      N/A     39  14  35 N9        30.34S WCI  33

$$
NMZ407-409-411-412-130600-
SOUTHERN DESERTS

CITY           SKY/WX    TMP DP  RH WIND       PRES   REMARKS
DEMING         PTCLDY    40   8  26 NE5       30.28R
HOLLOMAN AFB   CLOUDY    43   8  24 SE2       30.26S
ALAMOGORDO     CLOUDY    48   7  18 CALM      30.27S
T OR C         CLEAR     49   5  16 W9        30.29R

$$
NMZ519>523-130600-
CENTRAL VALLEYS/CENTRAL HIGHLANDS

CITY           SKY/WX    TMP DP  RH WIND       PRES   REMARKS
ALBUQUERQUE    CLOUDY    49  18  29 CALM      30.32R
DOUBLE EAGLE   CLEAR     37  19  48 NW8       30.34S WCI  31
MORIARTY ARPT  FAIR      28  21  74 NW8       30.38R WCI  20
CLINES CORNERS CLOUDY    43  19  38 SE6       30.38S
BELEN          FAIR      41  11  29 N3        30.31S
SOCORRO        NOT AVBL

$$
NMZ524>526-539-540-130600-
SOUTHCENTRAL MOUNTAINS

CITY           SKY/WX    TMP DP  RH WIND       PRES   REMARKS
RUIDOSO          N/A     45  16  31 CALM      30.41S

$$
NMZ527>531-130600-
NORTHEAST HIGHLANDS/NORTHEAST PLAINS

CITY           SKY/WX    TMP DP  RH WIND       PRES   REMARKS
LAS VEGAS      CLOUDY    39  20  46 SW10      30.38F WCI  32
RATON          CLOUDY    34  20  56 NW7       30.36S WCI  28
CLAYTON        CLOUDY    41  24  51 SW9       30.32S

$$
NMZ532>537-130600-
EASTCENTRAL PLAINS

CITY           SKY/WX    TMP DP  RH WIND       PRES   REMARKS
TUCUMCARI      CLOUDY    44  25  47 CALM      30.30S
CANNON AFB     CLOUDY    41  24  49 SE6       30.33R
CLOVIS AIRPORT CLOUDY    36  23  60 E7        30.34S WCI  30

$$
NMZ028-029-538-130600-
SOUTHEAST PLAINS

CITY           SKY/WX    TMP DP  RH WIND       PRES   REMARKS
ROSWELL        CLEAR     43  24  47 W7        30.28R
ARTESIA        CLEAR     45  27  49 W8        30.29S
CARLSBAD       CLEAR     42  25  50 NW7       30.28R
HOBBS          CLOUDY    46  27  46 E9        30.33S


$$




USA.gov is the U.S. government's official web portal to all federal, state and local government web resources and services.